LiveATC.Net - Listen to live air traffic control over the Internet!


ICAO: KLRD  IATA: LRD   Airport: Laredo International Airport
City: Laredo   State/Province: Texas
Country: United States   Continent: North America
KLRD METAR Weather: KLRD 171356Z 36006KT 10SM OVC023 18/09 A3004 RMK AO2 SLP170 T01780089
KLRD Flight Activity (FlightAware)
KLRD Airport Info   (iFlightPlanner)
KLRD VFR Sectional Chart   (iFlightPlanner) 
KLRD IFR Low Chart   (iFlightPlanner) 

KLRD Ground/Tower
Feed Status: UP   Listeners: 0
Listen in your browser - HTML5 player (in browser, HTML5)
Click here to listen with your own player (launches your MP3 player)
KLRD Ground/Tower Audio Archives
FacilityFrequency
Laredo Ground121.800
Laredo Tower120.100
Laredo UNICOM122.950

NOTICE

Unauthorized use prohibited. See LiveATC.net Terms of Service


Airport/ARTCC Code
Frequency Search
(e.g., 124.400, 128.75)
Site-wide search
 


Browse LiveATC Feeds
Top 50 LiveATC Feeds
LiveATC Feed Map
Bad Weather Areas

LiveATC FAQ
Offer LiveATC feed
Contact LiveATC.net
Press Inquiries

LiveATC on iPhone
LiveATC on Android

Windows Phone
Windows 8/10

LiveATC Mobile
(Mobile browser)

ATC Audio Archives
Interesting Recordings

LiveATC Forums


Home Page
About LiveATC.net
Make a Donation
Terms of Use
Privacy Policy

Canadian Air Freqs

AIRMETs/SIGMETs

FAA Airport Status
Nat'l Airspace Status
Arrival Demand Charts


Server Software By:
Icecast.org
Liquidsoap